Temp
-5 -5 -5 -5 -5 -5 -6 -6 -7 -7 -7 -7 -7 -7 -6 -6 -7 -7 -7 -7 -7 -7 -7 -7 -7 -7 -7 -7 -7 -7 -7 -7 -7 -7 -7 -7 -7 -8 -8 -9 -8 -9 -9
-6 -5 -5 -5 -5 -5 -6 -6 -7 -7 -7 -7 -7 -7 -7 -6 -7 -7 -7 -8 -8 -7 -7 -7 -7 -7 -7 -7 -8 -7 -7 -7 -7 -7 -7 -7 -7 -7 -8 -8 -8 -8 -9
-5 -4 -5 -5 -5 -5 -6 -6 -6 -7 -7 -7 -7 -7 -6 -6 -6 -7 -7 -8 -8 -7 -7 -8 -8 -8 -8 -8 -8 -8 -8 -7 -7 -7 -7 -7 -7 -7 -8 -8 -8 -8 -9
-5 -5 -5 -5 -5 -5 -6 -6 -6 -7 -7 -7 -7 -6 -6 -7 -7 -7 -7 -7 -7 -7 -7 -7 -8 -7 -8 -8 -8 -8 -8 -7 -7 -7 -7 -7 -7 -7 -8 -8 -8 -9 -8
-5 -5 -5 -5 -5 -6 -6 -6 -6 -6 -7 -7 -7 -7 -7 -7 -7 -7 -7 -7 -7 -7 -7 -7 -7 -7 -8 -8 -8 -8 -8 -8 -8 -8 -7 -7 -8 -8 -8 -8 -8 -8 -8
-5 -5 -5 -5 -6 -6 -6 -6 -6 -6 -7 -7 -7 -7 -7 -7 -7 -7 -7 -7 -7 -7 -7 -7 -7 -7 -7 -7 -7 -8 -8 -9 -8 -8 -8 -8 -8 -8 -8 -8 -8 -8 -8
-5 -5 -5 -6 -6 -6 -6 -6 -6 -7 -7 -7 -7 -7 -7 -7 -7 -7 -7 -7 -7 -7 -7 -7 -7 -7 -7 -7 -7 -8 -9 -9 -8 -8 -8 -8 -8 -8 -8 -8 -8 -8 -8
-5 -5 -5 -5 -6 -6 -6 -6 -7 -7 -7 -7 -7 -7 -7 -7 -7 -7 -7 -7 -7 -7 -7 -7 -7 -7 -7 -7 -7 -9 -9 -9 -8 -8 -8 -8 -8 -8 -8 -8 -8 -8 -8
-5 -5 -5 -5 -6 -6 -6 -6 -7 -7 -7 -7 -7 -7 -7 -7 -7 -7 -7 -7 -7 -7 -7 -7 -7 -7 -7 -7 -7 -8 -8 -8 -8 -8 -8 -8 -8 -8 -8 -8 -8 -8 -8
-5 -6 -6 -6 -6 -6 -6 -6 -7 -7 -7 -6 -6 -6 -7 -7 -7 -6 -6 -6 -6 -6 -7 -7 -7 -7 -7 -7 -7 -7 -8 -8 -9 -8 -8 -8 -8 -8 -8 -8 -8 -8 -8
-5 -6 -6 -6 -6 -6 -6 -6 -7 -6 -6 -6 -6 -6 -6 -6 -6 -7 -7 -7 -7 -7 -7 -7 -7 -7 -6 -6 -7 -7 -8 -8 -8 -8 -8 -8 -9 -9 -8 -8 -8 -8 -8
-5 -6 -6 -6 -6 -6 -6 -6 -6 -6 -5 -5 -6 -7 -6 -7 -7 -7 -7 -7 -7 -7 -7 -7 -7 -7 -6 -6 -6 -7 -8 -7 -7 -7 -8 -8 -9 -8 -8 -8 -8 -9 -9
-5 -5 -6 -6 -6 -6 -6 -6 -6 -6 -6 -6 -6 -6 -6 -6 -6 -6 -6 -7 -7 -7 -7 -7 -7 -7 -7 -7 -7 -6 -7 -7 -7 -7 -7 -7 -7 -7 -8 -8 -8 -9 -9
-5 -6 -5 -5 -6 -6 -6 -6 -6 -6 -6 -6 -5 -6 -6 -6 -6 -6 -7 -7 -7 -7 -7 -7 -7 -7 -7 -6 -6 -6 -6 -7 -7 -7 -7 -7 -7 -8 -8 -8 -8 -8 -9
-5 -5 -5 -5 -5 -5 -5 -6 -6 -6 -6 -6 -6 -6 -7 -7 -6 -7 -7 -6 -7 -6 -7 -7 -6 -7 -7 -7 -7 -7 -7 -6 -7 -7 -7 -7 -7 -7 -8 -8 -8 -8 -8
-6 -5 -5 -5 -5 -5 -5 -5 -6 -6 -6 -6 -6 -6 -6 -6 -6 -6 -7 -7 -6 -6 -6 -6 -6 -7 -6 -7 -6 -7 -7 -7 -6 -7 -7 -7 -7 -7 -7 -7 -8 -8 -8
-5 -5 -5 -5 -5 -5 -5 -5 -6 -6 -6 -6 -6 -6 -6 -6 -6 -6 -6 -7 -7 -6 -6 -6 -6 -6 -7 -6 -6 -7 -7 -7 -6 -6 -7 -7 -7 -7 -7 -7 -7 -7 -8
-6 -5 -5 -5 -5 -5 -6 -5 -5 -5 -6 -6 -6 -6 -6 -6 -6 -6 -6 -6 -6 -6 -6 -6 -7 -6 -6 -6 -6 -7 -7 -7 -6 -6 -7 -7 -7 -7 -7 -7 -7 -7 -8
-6 -5 -5 -5 -5 -5 -5 -5 -5 -5 -5 -5 -5 -6 -6 -6 -6 -6 -6 -6 -6 -6 -6 -6 -6 -6 -6 -6 -6 -7 -7 -7 -7 -7 -7 -7 -7 -7 -7 -7 -7 -7 -7
-6 -5 -5 -5 -5 -5 -5 -5 -5 -5 -5 -5 -5 -6 -6 -6 -6 -6 -6 -6 -6 -6 -6 -6 -6 -6 -6 -6 -6 -6 -7 -7 -7 -7 -6 -7 -7 -7 -7 -7 -7 -8 -8
-5 -5 -5 -5 -5 -5 -5 -5 -5 -5 -5 -5 -6 -6 -6 -5 -5 -6 -6 -6 -6 -6 -6 -6 -6 -6 -6 -6 -6 -6 -7 -7 -7 -7 -7 -6 -6 -7 -7 -7 -7 -7 -7
-5 -5 -5 -5 -5 -5 -5 -5 -5 -5 -5 -5 -5 -5 -5 -5 -5 -6 -6 -5 -5 -6 -6 -6 -6 -6 -6 -6 -6 -6 -6 -7 -7 -7 -7 -7 -6 -6 -6 -7 -7 -7 -7
-5 -5 -5 -5 -5 -5 -5 -5 -5 -5 -5 -5 -5 -5 -5 -5 -5 -6 -5 -5 -5 -5 -6 -6 -6 -5 -6 -6 -6 -6 -6 -6 -6 -6 -6 -6 -6 -6 -6 -6 -7 -7 -7
-5 -5 -5 -5 -5 -5 -5 -5 -5 -5 -5 -5 -5 -5 -5 -5 -5 -6 -6 -6 -5 -5 -5 -5 -6 -5 -6 -6 -6 -6 -6 -6 -6 -6 -7 -6 -6 -6 -6 -6 -6 -6 -6
-5 -4 -4 -5 -4 -4 -4 -4 -4 -4 -5 -5 -5 -4 -5 -5 -6 -6 -6 -6 -6 -5 -5 -5 -5 -5 -6 -6 -6 -6 -6 -6 -6 -7 -6 -6 -6 -6 -6 -6 -6 -6 -6
-4 -4 -4 -4 -4 -4 -4 -4 -4 -4 -4 -5 -4 -4 -5 -5 -5 -5 -5 -6 -6 -5 -5 -5 -5 -5 -6 -6 -6 -7 -6 -6 -7 -6 -7 -7 -6 -6 -6 -6 -6 -6 -6
Height
5887 5888 5888 5887 5886 5887 5886 5886 5887 5890 5891 5892 5892 5892 5892 5894 5895 5896 5897 5898 5898 5898 5898 5899 5899 5899 5900 5900 5900 5901 5901 5901 5900 5900 5901 5901 5902 5903 5905 5908 5909 5911 5912
5888 5889 5888 5887 5888 5889 5887 5888 5890 5891 5892 5893 5893 5894 5894 5896 5898 5898 5899 5900 5899 5900 5900 5901 5900 5901 5901 5901 5902 5902 5902 5901 5901 5901 5901 5902 5903 5904 5906 5909 5911 5912 5914
5889 5889 5888 5889 5891 5889 5888 5891 5892 5893 5894 5895 5895 5896 5897 5897 5899 5900 5900 5901 5902 5902 5902 5903 5903 5903 5904 5903 5903 5903 5903 5903 5903 5902 5902 5903 5905 5906 5909 5911 5912 5914 5915
5890 5890 5889 5890 5891 5891 5890 5893 5893 5894 5896 5897 5897 5898 5898 5899 5900 5902 5903 5904 5903 5904 5904 5905 5905 5906 5905 5905 5905 5904 5905 5905 5905 5904 5905 5905 5907 5910 5911 5913 5914 5914 5916
5890 5891 5890 5891 5891 5893 5892 5894 5895 5896 5898 5899 5900 5900 5900 5902 5903 5904 5905 5905 5906 5906 5907 5907 5907 5907 5906 5905 5904 5904 5904 5904 5906 5906 5907 5908 5910 5912 5914 5915 5916 5916 5917
5892 5892 5892 5892 5893 5894 5895 5896 5897 5899 5900 5902 5902 5902 5903 5904 5905 5906 5907 5907 5908 5908 5909 5909 5909 5908 5908 5906 5904 5903 5902 5903 5906 5908 5909 5911 5913 5914 5916 5916 5917 5918 5918
5891 5892 5893 5894 5895 5895 5897 5898 5900 5902 5903 5904 5904 5904 5906 5907 5909 5909 5910 5910 5910 5911 5911 5912 5912 5911 5909 5907 5904 5902 5900 5903 5908 5910 5912 5913 5915 5916 5917 5918 5919 5919 5919
5892 5893 5894 5896 5897 5896 5899 5901 5903 5904 5905 5905 5906 5906 5908 5909 5911 5912 5913 5914 5914 5914 5914 5914 5914 5913 5912 5910 5907 5904 5903 5906 5909 5912 5914 5915 5915 5917 5918 5919 5920 5920 5920
5894 5894 5895 5896 5897 5898 5901 5903 5906 5906 5907 5906 5907 5907 5907 5908 5911 5912 5915 5916 5917 5916 5916 5916 5916 5915 5914 5913 5911 5909 5908 5910 5912 5912 5915 5916 5917 5918 5918 5920 5920 5920 5921
5894 5895 5895 5897 5899 5900 5904 5906 5908 5908 5908 5909 5911 5912 5912 5911 5915 5917 5915 5919 5920 5919 5919 5918 5918 5918 5917 5916 5915 5914 5913 5916 5915 5915 5915 5916 5917 5918 5919 5920 5921 5921 5921
5895 5897 5897 5899 5900 5903 5906 5908 5910 5910 5912 5914 5914 5916 5918 5917 5916 5920 5920 5920 5922 5922 5922 5922 5921 5921 5919 5918 5917 5917 5915 5916 5916 5916 5916 5916 5917 5917 5919 5921 5921 5921 5920
5896 5898 5900 5901 5903 5905 5908 5910 5912 5913 5915 5918 5921 5920 5920 5924 5920 5921 5922 5923 5923 5923 5922 5922 5923 5922 5920 5921 5921 5921 5918 5917 5918 5917 5917 5916 5916 5917 5921 5922 5921 5920 5920
5898 5899 5901 5903 5905 5907 5910 5912 5914 5915 5918 5921 5925 5919 5894 5920 5921 5925 5924 5925 5926 5924 5921 5920 5923 5924 5923 5922 5922 5922 5922 5922 5921 5920 5920 5919 5918 5920 5921 5922 5921 5919 5916
5899 5901 5903 5905 5906 5909 5911 5914 5916 5918 5920 5923 5925 5923 5919 5921 5921 5926 5927 5929 5927 5927 5927 5923 5922 5925 5926 5925 5922 5922 5922 5924 5923 5922 5922 5922 5922 5921 5921 5922 5921 5920 5920
5901 5902 5904 5906 5908 5911 5913 5916 5918 5920 5922 5922 5924 5923 5924 5924 5927 5929 5931 5930 5930 5931 5927 5924 5924 5925 5927 5927 5923 5923 5924 5925 5925 5925 5925 5923 5922 5922 5923 5922 5922 5921 5921
5903 5903 5906 5908 5910 5912 5914 5917 5920 5923 5924 5925 5926 5925 5926 5928 5931 5933 5933 5930 5930 5927 5922 5924 5925 5927 5928 5927 5925 5924 5925 5926 5926 5926 5925 5925 5924 5923 5922 5922 5923 5922 5921
5902 5904 5907 5909 5912 5914 5916 5919 5922 5925 5927 5929 5930 5931 5932 5934 5935 5937 5936 5933 5929 5926 5926 5926 5928 5930 5927 5927 5925 5925 5925 5926 5927 5926 5928 5926 5926 5926 5925 5925 5925 5924 5923
5903 5905 5908 5910 5912 5915 5917 5920 5923 5926 5929 5931 5932 5934 5935 5936 5937 5938 5938 5937 5935 5932 5932 5932 5930 5930 5927 5925 5924 5926 5926 5926 5927 5928 5927 5927 5927 5927 5927 5927 5925 5924 5924
5902 5906 5908 5910 5913 5916 5918 5921 5923 5926 5929 5932 5934 5935 5936 5937 5937 5938 5939 5938 5937 5936 5933 5932 5930 5927 5926 5924 5924 5926 5926 5927 5927 5927 5928 5928 5928 5927 5928 5928 5926 5925 5924
5901 5905 5908 5911 5914 5917 5919 5921 5925 5927 5929 5932 5934 5935 5937 5937 5938 5939 5939 5938 5937 5937 5936 5935 5933 5930 5928 5926 5926 5926 5927 5927 5927 5927 5927 5927 5927 5928 5927 5927 5926 5925 5926
5900 5903 5907 5910 5914 5918 5920 5922 5925 5928 5931 5933 5934 5936 5938 5939 5940 5940 5941 5939 5940 5938 5938 5937 5936 5933 5931 5929 5929 5928 5928 5928 5928 5927 5927 5926 5929 5928 5928 5927 5926 5926 5926
5899 5902 5906 5909 5913 5917 5920 5923 5926 5929 5931 5933 5935 5936 5938 5940 5941 5942 5942 5942 5940 5940 5940 5938 5936 5935 5934 5932 5931 5931 5930 5930 5929 5928 5928 5928 5928 5927 5927 5928 5926 5927 5926
5899 5902 5905 5908 5912 5915 5919 5922 5926 5928 5930 5933 5935 5937 5939 5940 5941 5943 5943 5943 5942 5942 5941 5939 5938 5937 5936 5936 5935 5933 5932 5931 5930 5929 5929 5930 5930 5929 5929 5926 5926 5925 5927
5897 5900 5904 5908 5911 5914 5918 5921 5924 5926 5929 5933 5935 5937 5939 5941 5942 5942 5943 5943 5943 5943 5943 5941 5940 5939 5938 5938 5937 5936 5935 5934 5932 5932 5931 5931 5930 5930 5929 5926 5925 5926 5925
5897 5900 5904 5907 5911 5914 5917 5920 5922 5926 5929 5933 5935 5937 5940 5942 5942 5943 5943 5944 5943 5943 5943 5943 5941 5940 5940 5938 5938 5938 5936 5935 5934 5933 5932 5931 5930 5929 5928 5927 5925 5925 5924
5895 5899 5903 5907 5910 5913 5916 5919 5922 5925 5928 5931 5934 5937 5940 5941 5942 5943 5943 5944 5944 5944 5944 5943 5942 5941 5940 5939 5939 5939 5938 5936 5934 5934 5934 5932 5930 5929 5926 5925 5925 5925 5923
Wind_Speed
14 16 13 13 14 14 17 17 16 14 12 13 13 13 13 12 11 11 12 13 13 12 12 10 9 8 6 4 4 3 2 2 4 4 2 1 6 9 8 11 10 8 8
15 15 14 14 12 13 15 15 14 12 11 11 11 12 11 10 9 10 12 11 11 11 10 9 8 6 5 3 4 4 3 2 4 5 2 2 7 9 11 12 9 8 7
9 12 14 11 11 12 15 13 11 11 10 10 10 10 9 8 9 10 11 10 9 10 9 8 7 6 5 4 3 2 2 1 3 5 4 5 7 11 11 9 9 7 6
8 10 12 12 11 11 14 11 11 10 9 9 9 9 9 8 8 9 8 8 8 8 7 7 7 6 7 8 8 2 1 1 2 4 6 7 10 11 9 8 8 6 4
8 9 10 11 11 11 12 11 10 10 9 9 9 9 8 8 9 9 9 8 7 6 7 8 7 8 8 7 8 3 5 3 2 6 7 10 12 10 7 6 5 4 1
7 7 8 10 10 10 11 11 10 10 9 10 10 10 10 10 10 9 10 9 9 10 9 9 10 11 11 10 9 6 4 4 5 8 9 9 8 7 6 4 2 1 1
5 7 7 8 9 10 10 11 10 11 11 11 11 12 12 11 10 12 11 11 12 11 11 12 13 13 15 16 16 13 5 11 11 8 9 8 5 4 3 2 1 0 2
6 7 7 7 8 10 10 11 11 11 11 11 13 14 14 13 14 14 13 14 14 14 15 14 14 15 16 19 20 19 16 17 12 9 7 6 5 3 1 1 2 2 2
6 6 7 7 8 10 11 12 12 11 11 14 16 16 18 19 19 19 19 19 17 16 14 14 13 14 16 18 19 20 20 18 14 9 5 1 0 1 2 3 3 3 3
8 6 8 8 9 11 13 14 14 12 15 16 17 18 19 23 21 20 21 17 15 14 13 12 12 12 15 16 17 18 13 12 10 8 3 2 3 6 4 2 3 3 4
9 9 9 9 11 14 16 15 14 15 17 17 19 20 10 22 20 17 17 15 13 14 14 13 13 13 13 14 15 15 13 10 10 8 5 4 5 10 8 2 2 5 5
10 9 11 11 14 16 16 16 16 16 17 17 20 17 11 13 18 15 15 14 12 12 13 13 12 12 14 13 14 13 13 11 12 12 12 12 5 8 5 1 7 11 11
9 10 11 12 14 16 17 17 17 16 15 16 17 17 10 14 15 12 13 10 9 9 9 11 11 12 10 10 10 13 12 10 13 14 13 14 13 9 4 3 9 12 7
8 10 11 13 15 17 17 17 18 16 12 10 13 13 11 15 13 11 10 9 9 8 9 11 12 10 9 7 10 10 11 13 11 14 13 13 12 10 7 5 11 12 9
8 10 12 13 16 17 18 20 18 16 12 9 7 8 8 14 11 10 8 8 10 8 2 12 11 9 9 10 10 9 9 11 13 13 13 12 11 10 10 9 10 12 11
8 10 11 13 15 17 18 19 18 15 12 9 6 7 8 8 8 9 9 10 11 14 17 14 12 12 5 6 9 8 7 7 10 12 11 10 10 10 10 9 8 9 9
7 10 11 13 17 16 17 17 15 13 11 10 9 8 7 6 6 8 9 9 13 14 13 12 8 7 8 5 6 7 6 6 7 8 11 10 10 10 10 9 9 9 8
8 11 11 13 17 16 17 17 14 13 11 9 9 7 6 6 6 7 7 10 11 10 11 9 7 6 7 9 7 5 5 4 5 6 8 9 10 10 10 10 10 11 10
11 12 13 14 16 17 18 17 15 14 12 10 9 7 6 5 5 6 8 10 12 9 10 10 11 11 9 6 7 3 3 3 4 5 6 6 6 7 8 9 9 9 9
16 14 16 16 16 17 17 17 15 13 12 10 9 7 5 4 3 5 7 10 10 11 10 11 13 14 12 8 5 4 4 4 4 3 4 4 4 6 6 7 8 9 10
19 18 19 18 17 17 18 17 15 12 9 9 8 7 6 5 5 4 8 9 10 10 10 11 13 16 15 15 12 10 8 7 6 6 5 4 5 6 7 9 9 9 11
21 20 20 21 20 20 20 18 14 12 10 8 8 7 6 6 6 4 6 8 10 9 11 11 13 15 19 18 16 13 11 9 9 9 9 9 9 8 7 7 9 11 12
19 19 20 22 23 22 21 18 15 13 12 11 8 8 8 7 7 5 6 7 8 8 9 11 12 12 13 13 13 15 14 13 10 10 11 10 9 8 9 8 8 10 11
21 20 19 21 23 23 21 18 17 17 13 9 10 11 10 7 5 4 4 5 6 7 7 8 10 11 10 8 8 9 9 8 8 8 8 8 8 8 10 13 13 12 10
20 19 18 19 20 21 20 19 18 17 13 11 12 12 11 7 4 2 1 3 5 5 5 5 6 6 7 8 9 9 7 6 8 7 8 8 7 8 7 8 13 14 10
20 20 20 19 20 20 20 18 17 16 14 13 13 11 10 8 6 3 2 2 4 5 4 3 3 4 4 4 6 7 6 5 6 7 8 9 7 5 8 9 8 9 12
Wind_Direction
92 93 97 92 88 104 103 107 113 119 126 130 124 126 123 121 125 124 115 107 112 117 118 119 116 109 95 81 73 73 52 52 65 34 36 152 173 178 178 165 174 166 163
92 97 85 81 95 105 100 103 110 117 121 120 125 127 125 132 135 126 115 112 117 117 113 112 103 89 74 52 34 27 27 75 36 50 59 140 163 168 156 162 168 164 164
104 66 85 88 101 101 97 104 110 113 113 119 122 121 132 151 143 129 120 125 114 108 109 98 89 83 74 45 13 356 18 354 26 65 97 125 156 149 154 158 154 157 157
89 86 91 97 102 97 97 104 104 107 113 119 117 121 142 149 134 120 121 120 124 116 108 91 75 61 41 30 358 293 344 276 25 69 103 128 148 149 147 140 139 143 135
80 78 89 103 99 94 96 100 103 109 118 124 121 127 138 125 116 116 121 116 119 107 85 73 58 40 24 2 359 350 283 220 150 87 107 124 143 145 143 134 133 129 111
66 74 99 101 97 95 95 101 110 114 121 121 121 116 106 111 113 113 105 97 97 92 81 66 51 47 43 31 16 355 280 196 129 112 102 129 136 142 139 131 135 84 351
100 97 96 95 102 98 100 109 117 119 121 120 118 108 102 106 107 102 101 98 93 89 80 73 72 61 46 35 28 30 40 156 127 95 104 109 132 145 138 144 212 42 74
113 115 106 110 103 104 107 119 123 124 126 119 109 104 98 102 105 101 98 95 91 89 84 78 69 56 44 40 39 51 82 123 122 110 88 81 122 116 120 239 254 267 292
124 113 107 112 115 111 120 130 130 131 127 113 111 112 109 108 108 106 102 96 95 91 82 74 65 58 52 48 50 73 105 111 114 119 109 72 16 353 281 277 289 275 279
129 122 114 118 123 119 133 136 134 136 128 116 111 110 112 110 106 106 105 98 89 81 72 63 57 55 59 57 56 70 81 112 100 109 84 319 280 233 259 346 342 336 313
137 130 123 125 126 133 138 137 137 142 126 123 122 117 105 112 108 106 98 92 82 72 66 57 53 49 56 61 63 66 70 53 43 54 40 337 312 212 222 274 352 338 311
143 138 132 131 130 135 137 140 142 142 133 131 114 97 106 97 104 99 87 83 81 76 78 64 55 55 50 54 64 64 63 52 56 50 43 40 62 184 186 136 344 329 307
149 149 137 138 138 138 138 141 144 145 141 130 121 138 91 96 87 83 73 74 72 77 81 75 67 56 55 52 60 66 69 61 55 55 52 54 68 115 126 22 2 6 38
156 157 141 144 142 144 143 142 146 144 138 127 120 134 120 101 81 73 65 53 40 32 56 59 45 40 55 55 60 50 57 68 58 63 59 61 68 83 96 55 39 48 63
162 161 150 149 148 147 147 144 145 143 137 124 117 109 80 83 85 74 55 18 17 8 3 45 40 23 19 18 48 45 42 54 57 60 64 72 73 72 67 63 54 53 57
179 168 163 162 154 154 150 146 141 143 149 138 129 100 88 89 78 64 43 9 12 15 23 30 42 0 346 27 23 37 42 50 59 61 63 68 74 78 78 78 74 67 63
203 176 171 166 160 155 152 148 146 146 145 148 142 129 118 97 70 64 49 29 11 14 15 16 9 15 9 18 43 26 9 39 63 64 66 63 64 62 56 53 51 49 49
208 188 177 168 171 172 158 151 149 154 157 155 148 144 134 110 75 59 50 33 33 32 35 22 7 22 15 22 28 32 14 7 45 66 68 67 62 55 55 44 39 36 37
210 194 185 172 170 169 164 162 163 166 166 160 156 154 141 107 75 62 46 36 31 46 36 24 14 6 3 12 18 45 34 16 30 43 63 53 51 54 39 36 28 27 18
198 197 193 177 179 176 166 166 175 176 171 168 162 150 143 121 92 71 55 47 39 53 55 46 36 35 38 33 31 83 71 45 52 47 28 49 34 22 5 2 1 357 0
191 195 195 185 181 183 176 178 183 181 177 178 179 162 145 133 112 78 56 48 47 51 52 43 47 49 49 60 70 69 57 58 53 43 33 6 19 355 341 340 341 347 337
194 199 196 194 188 192 191 191 192 195 191 186 185 167 154 148 120 104 65 54 49 45 46 38 46 55 59 57 63 70 70 68 61 56 47 38 32 25 16 1 340 340 336
201 203 203 198 197 195 196 195 200 206 208 199 178 172 172 161 135 119 77 60 52 43 40 44 46 50 63 65 68 68 70 75 72 66 61 53 44 26 15 352 351 345 342
207 207 206 200 204 199 199 202 205 207 210 194 182 182 178 170 140 113 85 60 49 45 41 46 53 48 51 61 67 68 63 61 56 47 36 32 28 12 4 347 346 4 3
214 211 206 206 208 206 204 206 205 207 204 201 202 191 183 190 204 184 75 55 58 43 40 45 47 57 70 66 56 59 60 55 44 31 14 358 353 336 336 333 345 5 3
221 219 219 213 211 209 208 206 204 207 198 204 206 203 196 207 226 241 295 7 32 35 16 19 45 61 86 62 45 50 42 45 32 38 23 14 348 350 359 358 7 353 341